Starlink 32959

operational
NORAD ID: 63569 Int'l Des: 2025-076 Owner: SPXS Country: US Constellation: starlink
LEOCIRCULAR

关于 Starlink 32959

正在加载描述...

实时位置

正在加载3D地球...

即将过境

高度历史

Altitude vs Time

uPlot chart will show altitude changes over time

两行轨道根数

1 63569U 25076A 25258.31294061 .00065672 00000-0 23741-2 0 9992
2 63569 43.0009 236.1057 0001137 284.1890 75.8836 15.27590524 24963
Epoch: Sep 15, 2025 • Age: 17 hours

当前状态

高度 492.7 km
速度 7.62 km/s
星下点 -36.09°S, 104.3°E
发射日期 Apr 14, 2025
运行时间 0.4 years
类型 internet

技术详情

分类 Payload
质量 730.00 kg
干质量 700.00 kg
总质量 730.00 kg
长度 0.30 m
直径 4.10 m
跨度 29.00 m
形状 Box + pan
制造商 SPXS
平台类型 Starlink V2M
阶段状态 In Orbit
所有者/国家 SPXS/US

大型星座

Loading constellations...